sat.trackr.live / text

‹ back to catalog

TIANPING 3B-02

NORAD 61616 · 2024-189C

PAYLOAD ACTIVE UNKNOWN

§ Identity

Operator
Country
PRC
Launch date
2024-10-22
Launch site
TAISC
Launch vehicle
Mass (kg)
RCS (m²)

External: N2YO · Heavens-Above · Gunter

§ Orbital elements

Epoch: 2026-09-22T23:23:59.781408Z

Period
95.94 min
Inclination
97.5130°
Eccentricity
0.0001874
Mean motion
15.00995108 rev/d
Perigee alt
562.5 km
Apogee alt
565.1 km
Semi-major
6,942.0 km
B*
1.0599e-4
RAAN
283.0578°
Arg perigee
91.6813°
Mean anomaly
268.4626°
Rev number
10,511

§ Raw data

TIANPING 3B-021 61616U 24189C   26265.97499747  .00001295  00000+0  10599-3 0  99942 61616  97.5130 283.0578 0001874  91.6813 268.4626 15.00995108105118

JSON: /api/v1/satellites/61616 · /tle

For live sub-satellite position, see the globe view (requires WebGL).

§ Visibility from observer

Set your observer location to see the next 7 days of passes ≥ 10°. The values pass through the URL so the page stays shareable.

No JS? Fill the form by hand. The geolocation button needs JavaScript.